QPF
0.03 0.04 0.04 0.05 0.05 0.07 0.08 0.08 0.07 0.05 0.04 0.05 0.04 0.02 0.01 0.01 0.02 0.02 0.02 0.03 0.02 0.02 0.03 0.04 0.02 0.02 0.03 0.03 0.04 0.04 0.04 0.05 0.06 0.06 0.06 0.07 0.09 0.08
0.05 0.05 0.05 0.03 0.05 0.07 0.08 0.08 0.07 0.06 0.04 0.04 0.05 0.03 0.02 0.02 0.02 0.03 0.03 0.03 0.02 0.02 0.02 0.04 0.02 0.01 0.01 0.02 0.03 0.04 0.04 0.05 0.06 0.07 0.07 0.05 0.04 0.03
0.05 0.06 0.06 0.05 0.05 0.04 0.07 0.07 0.06 0.06 0.06 0.05 0.03 0.03 0.03 0.03 0.04 0.04 0.03 0.03 0.03 0.03 0.04 0.05 0.03 0.01 0.02 0.02 0.04 0.05 0.05 0.05 0.05 0.05 0.05 0.04 0.03 0.02
0.07 0.07 0.06 0.06 0.06 0.05 0.06 0.07 0.06 0.07 0.06 0.06 0.04 0.04 0.04 0.04 0.05 0.03 0.03 0.02 0.02 0.02 0.04 0.06 0.05 0.05 0.04 0.03 0.03 0.03 0.04 0.04 0.03 0.04 0.04 0.03 0.03 0.02
0.06 0.06 0.06 0.05 0.05 0.05 0.05 0.05 0.05 0.06 0.07 0.05 0.04 0.04 0.04 0.03 0.02 0.02 0.02 0.03 0.03 0.04 0.06 0.06 0.05 0.05 0.04 0.04 0.03 0.03 0.03 0.02 0.02 0.03 0.03 0.03 0.03 0.04
0.03 0.03 0.03 0.02 0.02 0.04 0.04 0.04 0.04 0.05 0.05 0.05 0.04 0.04 0.04 0.03 0.04 0.04 0.04 0.04 0.04 0.04 0.05 0.06 0.05 0.04 0.04 0.04 0.04 0.04 0.03 0.02 0.02 0.02 0.03 0.03 0.05 0.07
0.02 0.02 0.02 0.01 0.02 0.03 0.03 0.04 0.04 0.04 0.03 0.03 0.03 0.04 0.03 0.04 0.04 0.04 0.05 0.06 0.06 0.05 0.05 0.04 0.03 0.03 0.04 0.04 0.04 0.04 0.04 0.03 0.02 0.02 0.02 0.03 0.05 0.07
0.01 0.02 0.02 0.01 0.01 0.02 0.02 0.02 0.03 0.04 0.04 0.04 0.04 0.04 0.04 0.03 0.04 0.03 0.04 0.06 0.06 0.06 0.06 0.06 0.05 0.05 0.05 0.04 0.04 0.03 0.03 0.03 0.03 0.03 0.02 0.03 0.04 0.06
0.01 0.02 0.02 0.01 0.02 0.02 0.02 0.02 0.02 0.03 0.03 0.04 0.04 0.04 0.04 0.04 0.04 0.03 0.04 0.04 0.05 0.04 0.04 0.05 0.06 0.07 0.06 0.05 0.04 0.04 0.04 0.03 0.03 0.03 0.03 0.03 0.03 0.04
0.01 0.02 0.02 0.02 0.02 0.03 0.04 0.03 0.02 0.01 0.01 0.01 0.03 0.03 0.03 0.04 0.03 0.03 0.04 0.04 0.04 0.04 0.04 0.03 0.03 0.05 0.05 0.06 0.05 0.04 0.04 0.04 0.04 0.04 0.04 0.03 0.03 0.03
0.01 0.01 0.01 0.01 0.02 0.02 0.04 0.05 0.04 0.03 0.02 0.03 0.03 0.03 0.03 0.03 0.03 0.04 0.05 0.05 0.04 0.04 0.04 0.05 0.04 0.05 0.06 0.07 0.07 0.06 0.05 0.05 0.05 0.04 0.04 0.03 0.03 0.04
0.01 0.01 0.01 0.01 0.01 0.02 0.03 0.06 0.06 0.05 0.05 0.05 0.05 0.05 0.05 0.05 0.05 0.06 0.08 0.08 0.06 0.05 0.05 0.06 0.06 0.06 0.09 0.08 0.07 0.07 0.06 0.05 0.03 0.02 0.02 0.03 0.03 0.02
0.01 0.01 0.01 0.01 0.01 0.01 0.02 0.04 0.04 0.05 0.05 0.05 0.04 0.04 0.04 0.04 0.05 0.05 0.06 0.06 0.06 0.06 0.06 0.06 0.05 0.06 0.08 0.09 0.08 0.07 0.04 0.03 0.02 0.01 0.01 0.01 0.02 0.02
0.02 0.02 0.02 0.02 0.02 0.02 0.03 0.04 0.05 0.05 0.05 0.04 0.05 0.04 0.04 0.03 0.04 0.04 0.06 0.07 0.06 0.07 0.08 0.07 0.06 0.05 0.05 0.05 0.05 0.05 0.05 0.03 0.02 0.01 0.01 0.01 0.01 0.00
0.02 0.02 0.02 0.02 0.02 0.03 0.04 0.06 0.06 0.05 0.05 0.05 0.05 0.04 0.04 0.04 0.03 0.04 0.05 0.05 0.04 0.05 0.04 0.05 0.06 0.07 0.06 0.04 0.03 0.03 0.03 0.03 0.02 0.01 0.01 0.01 0.01 0.00
0.02 0.02 0.02 0.01 0.02 0.02 0.02 0.03 0.03 0.04 0.05 0.06 0.06 0.06 0.05 0.04 0.04 0.04 0.04 0.04 0.04 0.04 0.04 0.03 0.03 0.04 0.04 0.05 0.04 0.04 0.03 0.02 0.02 0.02 0.01 0.01 0.01 0.01
0.02 0.02 0.01 0.02 0.02 0.02 0.02 0.02 0.02 0.03 0.03 0.03 0.04 0.05 0.05 0.05 0.05 0.05 0.05 0.04 0.04 0.03 0.03 0.02 0.02 0.02 0.02 0.03 0.03 0.04 0.04 0.04 0.03 0.02 0.02 0.01 0.01 0.01
0.02 0.02 0.02 0.02 0.02 0.02 0.03 0.03 0.03 0.02 0.03 0.03 0.03 0.04 0.04 0.05 0.05 0.05 0.05 0.04 0.04 0.04 0.03 0.02 0.02 0.02 0.02 0.02 0.02 0.02 0.03 0.03 0.03 0.03 0.03 0.02 0.02 0.02
0.03 0.03 0.03 0.03 0.02 0.02 0.02 0.02 0.02 0.02 0.03 0.04 0.05 0.05 0.05 0.05 0.05 0.05 0.05 0.05 0.05 0.05 0.05 0.04 0.03 0.03 0.02 0.02 0.02 0.01 0.01 0.02 0.02 0.02 0.03 0.03 0.02 0.02
0.02 0.02 0.02 0.02 0.02 0.02 0.02 0.03 0.03 0.03 0.03 0.04 0.05 0.05 0.06 0.06 0.06 0.05 0.05 0.05 0.05 0.05 0.05 0.04 0.04 0.04 0.03 0.03 0.02 0.01 0.01 0.02 0.02 0.02 0.02 0.02 0.02 0.02
0.03 0.03 0.03 0.03 0.03 0.03 0.04 0.04 0.05 0.04 0.04 0.04 0.04 0.04 0.05 0.06 0.06 0.05 0.05 0.05 0.05 0.04 0.04 0.03 0.04 0.04 0.04 0.03 0.03 0.02 0.02 0.02 0.02 0.02 0.02 0.02 0.03 0.03
0.04 0.04 0.03 0.03 0.04 0.05 0.05 0.06 0.06 0.05 0.05 0.06 0.06 0.06 0.05 0.05 0.05 0.05 0.05 0.06 0.06 0.06 0.05 0.05 0.05 0.04 0.04 0.04 0.04 0.04 0.03 0.02 0.02 0.02 0.02 0.03 0.03 0.03
0.05 0.04 0.04 0.05 0.06 0.06 0.06 0.06 0.05 0.05 0.05 0.05 0.06 0.07 0.07 0.08 0.08 0.08 0.09 0.09 0.09 0.08 0.08 0.07 0.07 0.06 0.05 0.04 0.04 0.03 0.03 0.02 0.02 0.02 0.02 0.02 0.03 0.03
MSLP
1016.41 1016.62 1016.86 1017.10 1017.29 1017.38 1017.35 1017.20 1016.93 1016.59 1016.21 1015.84 1015.53 1015.31 1015.19 1015.17 1015.21 1015.31 1015.41 1015.50 1015.56 1015.59 1015.58 1015.56 1015.52 1015.49 1015.46 1015.42 1015.36 1015.26 1015.11 1014.89 1014.61 1014.28 1013.92 1013.56 1013.21 1012.92
1015.70 1015.87 1016.08 1016.30 1016.49 1016.61 1016.63 1016.55 1016.37 1016.11 1015.82 1015.53 1015.29 1015.12 1015.02 1015.00 1015.04 1015.10 1015.18 1015.25 1015.30 1015.32 1015.32 1015.32 1015.31 1015.31 1015.30 1015.28 1015.22 1015.11 1014.94 1014.68 1014.35 1013.96 1013.54 1013.10 1012.68 1012.31
1015.00 1015.13 1015.30 1015.49 1015.67 1015.80 1015.87 1015.84 1015.73 1015.56 1015.35 1015.14 1014.95 1014.82 1014.74 1014.71 1014.73 1014.77 1014.82 1014.86 1014.89 1014.91 1014.93 1014.95 1014.98 1015.01 1015.04 1015.05 1015.02 1014.92 1014.73 1014.46 1014.10 1013.67 1013.19 1012.69 1012.20 1011.75
1014.35 1014.43 1014.55 1014.71 1014.88 1015.01 1015.10 1015.11 1015.06 1014.95 1014.81 1014.65 1014.51 1014.40 1014.32 1014.28 1014.27 1014.28 1014.29 1014.31 1014.32 1014.34 1014.37 1014.41 1014.48 1014.56 1014.63 1014.68 1014.68 1014.60 1014.44 1014.17 1013.80 1013.36 1012.84 1012.30 1011.75 1011.22
1013.72 1013.76 1013.85 1013.97 1014.11 1014.24 1014.33 1014.37 1014.35 1014.29 1014.18 1014.07 1013.95 1013.84 1013.76 1013.70 1013.66 1013.63 1013.60 1013.59 1013.58 1013.59 1013.63 1013.69 1013.79 1013.91 1014.03 1014.12 1014.17 1014.14 1014.01 1013.77 1013.43 1012.99 1012.48 1011.91 1011.32 1010.75
1013.09 1013.09 1013.15 1013.24 1013.36 1013.47 1013.55 1013.60 1013.60 1013.55 1013.47 1013.37 1013.26 1013.16 1013.06 1012.98 1012.91 1012.84 1012.78 1012.73 1012.70 1012.70 1012.73 1012.81 1012.93 1013.08 1013.24 1013.39 1013.48 1013.51 1013.44 1013.26 1012.97 1012.57 1012.09 1011.54 1010.95 1010.34
1012.41 1012.40 1012.43 1012.49 1012.58 1012.67 1012.74 1012.78 1012.78 1012.74 1012.67 1012.58 1012.47 1012.37 1012.26 1012.16 1012.06 1011.96 1011.87 1011.80 1011.74 1011.72 1011.75 1011.83 1011.96 1012.13 1012.32 1012.51 1012.67 1012.76 1012.76 1012.65 1012.44 1012.12 1011.69 1011.19 1010.63 1010.04
1011.68 1011.65 1011.65 1011.70 1011.76 1011.82 1011.87 1011.90 1011.89 1011.85 1011.79 1011.70 1011.60 1011.50 1011.39 1011.29 1011.18 1011.07 1010.96 1010.86 1010.78 1010.75 1010.76 1010.83 1010.96 1011.13 1011.35 1011.57 1011.78 1011.93 1012.01 1012.00 1011.87 1011.64 1011.31 1010.89 1010.40 1009.85
1010.90 1010.85 1010.84 1010.86 1010.90 1010.94 1010.97 1010.97 1010.96 1010.91 1010.85 1010.78 1010.69 1010.60 1010.51 1010.42 1010.31 1010.20 1010.09 1009.98 1009.89 1009.83 1009.83 1009.88 1009.99 1010.17 1010.39 1010.64 1010.88 1011.10 1011.25 1011.32 1011.30 1011.17 1010.95 1010.63 1010.22 1009.76
1010.12 1010.06 1010.04 1010.03 1010.04 1010.05 1010.06 1010.04 1010.01 1009.96 1009.91 1009.84 1009.78 1009.72 1009.65 1009.58 1009.50 1009.41 1009.31 1009.20 1009.11 1009.04 1009.01 1009.04 1009.14 1009.30 1009.52 1009.78 1010.05 1010.30 1010.52 1010.67 1010.73 1010.71 1010.59 1010.38 1010.08 1009.72
1009.42 1009.35 1009.30 1009.27 1009.24 1009.22 1009.19 1009.14 1009.09 1009.03 1008.98 1008.93 1008.89 1008.86 1008.83 1008.80 1008.76 1008.69 1008.61 1008.52 1008.43 1008.36 1008.32 1008.34 1008.41 1008.56 1008.76 1009.02 1009.30 1009.58 1009.83 1010.04 1010.17 1010.23 1010.21 1010.10 1009.92 1009.67
1008.86 1008.77 1008.69 1008.62 1008.55 1008.48 1008.39 1008.31 1008.22 1008.14 1008.08 1008.04 1008.02 1008.02 1008.03 1008.04 1008.03 1008.01 1007.97 1007.90 1007.83 1007.76 1007.72 1007.72 1007.78 1007.91 1008.10 1008.34 1008.62 1008.90 1009.18 1009.42 1009.60 1009.72 1009.78 1009.76 1009.68 1009.56
1008.47 1008.34 1008.22 1008.10 1007.97 1007.83 1007.68 1007.54 1007.40 1007.28 1007.20 1007.15 1007.13 1007.15 1007.19 1007.24 1007.28 1007.30 1007.30 1007.27 1007.22 1007.17 1007.13 1007.14 1007.19 1007.30 1007.48 1007.70 1007.97 1008.25 1008.53 1008.78 1008.99 1009.16 1009.27 1009.32 1009.34 1009.32
1008.22 1008.05 1007.88 1007.68 1007.48 1007.26 1007.03 1006.80 1006.60 1006.42 1006.29 1006.22 1006.20 1006.22 1006.28 1006.36 1006.44 1006.50 1006.53 1006.54 1006.52 1006.50 1006.49 1006.50 1006.56 1006.67 1006.83 1007.05 1007.30 1007.57 1007.84 1008.10 1008.32 1008.51 1008.66 1008.77 1008.86 1008.94
1008.05 1007.83 1007.58 1007.31 1007.01 1006.69 1006.37 1006.05 1005.76 1005.51 1005.33 1005.21 1005.17 1005.19 1005.25 1005.35 1005.45 1005.55 1005.62 1005.67 1005.69 1005.70 1005.71 1005.75 1005.82 1005.94 1006.10 1006.32 1006.56 1006.83 1007.10 1007.35 1007.58 1007.79 1007.96 1008.12 1008.28 1008.43
1007.85 1007.56 1007.24 1006.88 1006.49 1006.07 1005.64 1005.23 1004.85 1004.52 1004.28 1004.11 1004.03 1004.04 1004.10 1004.20 1004.33 1004.45 1004.55 1004.64 1004.70 1004.74 1004.79 1004.85 1004.95 1005.08 1005.26 1005.48 1005.73 1006.00 1006.27 1006.53 1006.77 1007.00 1007.20 1007.40 1007.60 1007.83
1007.52 1007.17 1006.77 1006.33 1005.84 1005.32 1004.80 1004.30 1003.84 1003.45 1003.15 1002.94 1002.83 1002.81 1002.86 1002.97 1003.11 1003.24 1003.38 1003.49 1003.58 1003.66 1003.74 1003.83 1003.95 1004.10 1004.30 1004.53 1004.80 1005.08 1005.37 1005.65 1005.92 1006.16 1006.40 1006.63 1006.88 1007.15
1007.00 1006.59 1006.12 1005.60 1005.04 1004.45 1003.86 1003.29 1002.78 1002.34 1002.00 1001.76 1001.62 1001.59 1001.64 1001.74 1001.88 1002.03 1002.18 1002.31 1002.43 1002.53 1002.63 1002.74 1002.88 1003.06 1003.27 1003.53 1003.81 1004.12 1004.43 1004.74 1005.03 1005.32 1005.58 1005.85 1006.13 1006.44
1006.29 1005.84 1005.32 1004.74 1004.13 1003.50 1002.87 1002.28 1001.74 1001.28 1000.92 1000.67 1000.53 1000.49 1000.53 1000.63 1000.77 1000.92 1001.08 1001.21 1001.34 1001.45 1001.56 1001.68 1001.84 1002.02 1002.25 1002.52 1002.82 1003.15 1003.48 1003.82 1004.15 1004.47 1004.77 1005.07 1005.37 1005.70
1005.46 1004.97 1004.42 1003.82 1003.19 1002.56 1001.93 1001.34 1000.81 1000.37 1000.02 999.78 999.64 999.60 999.64 999.74 999.87 1000.02 1000.16 1000.29 1000.41 1000.52 1000.62 1000.75 1000.89 1001.08 1001.30 1001.57 1001.88 1002.22 1002.58 1002.94 1003.30 1003.64 1003.97 1004.29 1004.60 1004.93
1004.60 1004.08 1003.53 1002.94 1002.34 1001.73 1001.14 1000.60 1000.11 999.71 999.39 999.17 999.05 999.02 999.05 999.13 999.24 999.37 999.49 999.60 999.70 999.79 999.88 999.98 1000.12 1000.28 1000.49 1000.75 1001.05 1001.39 1001.75 1002.12 1002.48 1002.84 1003.18 1003.51 1003.82 1004.14
1003.80 1003.30 1002.77 1002.22 1001.67 1001.12 1000.60 1000.13 999.71 999.36 999.08 998.89 998.78 998.74 998.75 998.81 998.89 998.98 999.07 999.15 999.22 999.28 999.35 999.43 999.53 999.67 999.86 1000.09 1000.37 1000.68 1001.02 1001.38 1001.74 1002.08 1002.41 1002.73 1003.02 1003.31
1003.16 1002.69 1002.21 1001.72 1001.25 1000.79 1000.35 999.96 999.61 999.32 999.08 998.91 998.80 998.73 998.72 998.73 998.76 998.80 998.85 998.89 998.92 998.95 998.99 999.05 999.13 999.24 999.40 999.60 999.84 1000.12 1000.42 1000.74 1001.06 1001.38 1001.68 1001.96 1002.22 1002.47
Thickness
5751 5750 5749 5750 5749 5748 5746 5743 5736 5732 5733 5736 5736 5737 5735 5733 5730 5729 5728 5725 5724 5722 5721 5719 5718 5718 5717 5716 5716 5715 5714 5712 5711 5711 5710 5708 5705 5703
5747 5746 5745 5748 5747 5746 5744 5742 5740 5734 5730 5734 5733 5734 5731 5731 5727 5726 5725 5722 5720 5718 5716 5715 5714 5713 5713 5713 5712 5711 5710 5709 5708 5707 5706 5704 5702 5700
5745 5744 5742 5742 5743 5743 5741 5740 5738 5735 5729 5730 5732 5730 5726 5725 5724 5723 5722 5720 5719 5714 5713 5711 5710 5710 5709 5709 5708 5707 5706 5704 5703 5702 5701 5700 5698 5696
5742 5741 5739 5740 5737 5738 5737 5736 5734 5731 5727 5722 5724 5724 5722 5721 5720 5718 5719 5718 5716 5712 5710 5708 5706 5705 5705 5704 5704 5703 5701 5700 5699 5698 5696 5695 5693 5691
5739 5737 5736 5735 5733 5734 5732 5731 5730 5729 5725 5722 5721 5720 5719 5719 5716 5715 5715 5713 5712 5709 5706 5704 5702 5701 5700 5700 5699 5698 5697 5697 5695 5694 5692 5690 5689 5687
5736 5735 5734 5732 5730 5729 5728 5726 5725 5723 5721 5719 5718 5717 5715 5715 5712 5711 5709 5709 5708 5707 5703 5701 5699 5697 5696 5695 5694 5694 5693 5692 5691 5689 5687 5686 5684 5682
5733 5732 5731 5727 5725 5724 5725 5723 5720 5718 5718 5716 5715 5713 5711 5708 5707 5707 5705 5705 5704 5703 5701 5700 5698 5696 5694 5692 5690 5689 5688 5687 5685 5684 5682 5681 5679 5677
5728 5728 5727 5724 5721 5717 5716 5713 5712 5712 5712 5711 5710 5708 5705 5705 5703 5702 5701 5699 5697 5699 5696 5696 5696 5694 5693 5691 5687 5685 5683 5682 5681 5679 5677 5676 5674 5672
5724 5723 5724 5724 5719 5717 5713 5708 5707 5704 5703 5705 5706 5704 5703 5702 5699 5697 5695 5694 5693 5694 5691 5690 5691 5689 5689 5686 5683 5680 5678 5676 5675 5673 5672 5670 5668 5667
5719 5718 5716 5716 5714 5711 5710 5709 5707 5706 5702 5700 5701 5701 5701 5699 5696 5695 5693 5691 5690 5690 5687 5684 5685 5684 5685 5682 5678 5675 5673 5671 5669 5667 5666 5664 5662 5661
5715 5713 5711 5710 5706 5702 5702 5702 5702 5702 5699 5696 5695 5694 5693 5692 5691 5691 5689 5687 5686 5686 5684 5681 5680 5679 5678 5677 5673 5670 5667 5665 5663 5661 5659 5658 5656 5654
5711 5709 5704 5703 5699 5695 5696 5696 5695 5695 5695 5694 5690 5689 5689 5688 5686 5685 5686 5684 5682 5680 5680 5675 5674 5673 5670 5671 5670 5665 5662 5659 5657 5655 5653 5652 5650 5649
5708 5707 5706 5697 5693 5690 5689 5691 5690 5688 5689 5689 5689 5688 5687 5685 5684 5683 5682 5680 5678 5677 5676 5671 5669 5668 5665 5664 5664 5663 5660 5657 5654 5651 5649 5646 5644 5642
5701 5702 5700 5691 5687 5684 5684 5684 5682 5680 5684 5684 5684 5683 5683 5682 5682 5680 5677 5675 5673 5672 5670 5667 5665 5662 5660 5658 5657 5657 5656 5654 5652 5649 5647 5642 5639 5636
5695 5691 5687 5683 5680 5680 5679 5677 5676 5678 5679 5679 5679 5679 5680 5679 5677 5674 5672 5669 5666 5666 5665 5660 5659 5657 5656 5655 5654 5652 5650 5648 5647 5644 5642 5640 5637 5634
5686 5684 5679 5677 5676 5676 5675 5674 5674 5676 5676 5675 5675 5675 5674 5672 5670 5669 5666 5664 5661 5660 5658 5655 5652 5651 5650 5649 5648 5646 5645 5643 5641 5639 5636 5634 5633 5631
5678 5679 5679 5678 5677 5676 5675 5675 5673 5672 5670 5670 5669 5668 5667 5666 5663 5662 5659 5657 5655 5654 5652 5650 5648 5645 5643 5642 5641 5641 5640 5638 5636 5633 5628 5628 5628 5626
5669 5674 5675 5675 5674 5673 5672 5671 5670 5669 5667 5666 5665 5663 5661 5660 5658 5656 5653 5650 5649 5648 5646 5645 5642 5638 5636 5636 5633 5633 5633 5631 5629 5625 5623 5622 5621 5621
5665 5669 5670 5671 5670 5668 5667 5667 5666 5665 5663 5661 5658 5656 5654 5653 5651 5649 5646 5644 5643 5642 5640 5638 5635 5632 5629 5629 5629 5624 5624 5623 5621 5619 5618 5616 5614 5614
5663 5665 5665 5665 5664 5662 5661 5660 5659 5658 5656 5654 5652 5651 5649 5647 5645 5643 5641 5638 5636 5634 5633 5632 5630 5627 5624 5623 5622 5619 5614 5615 5613 5611 5610 5608 5607 5604
5658 5659 5660 5659 5658 5657 5656 5654 5652 5650 5649 5647 5646 5643 5641 5639 5638 5636 5635 5631 5628 5628 5627 5626 5625 5621 5619 5616 5613 5612 5610 5604 5603 5601 5600 5600 5600 5599
5651 5652 5652 5652 5652 5650 5648 5647 5645 5643 5641 5640 5638 5636 5635 5633 5631 5628 5627 5625 5623 5622 5621 5620 5617 5614 5612 5609 5607 5605 5603 5600 5595 5592 5590 5590 5591 5592
5643 5643 5643 5644 5644 5643 5641 5640 5638 5637 5635 5632 5630 5628 5627 5625 5622 5621 5619 5617 5615 5614 5612 5611 5610 5607 5605 5602 5600 5598 5596 5594 5592 5589 5587 5583 5580 5579